Tracking 19908 objects as of 18-Oct-2019
HD Live streaming from Space Station
objects crossing your sky now

FLOCK 3K 8

Track FLOCK 3K 8 now!
10-day predictions
FLOCK 3K 8 is classified as:


NORAD ID: 43901
Int'l Code: 2018-111AB
Perigee: 484.6 km
Apogee: 512.9 km
Inclination: 97.3 °
Period: 94.4 minutes
Semi major axis: 6869 km
RCS: Unknown
Launch date: December 27, 2018
Source: United States (US)
Launch site: VOSTOCHNY COSMODROME (VOSTO)
aabbcc
Your satellite tracking list
Your tracking list is empty




NASA's NSSDC Master Catalog

Two Line Element Set (TLE):
1 43901U 18111AB  19290.79189194  .00003500  00000-0  14353-3 0  9995
2 43901  97.2784 192.6319 0020602 287.7156  72.1833 15.24716354 44890
Source of the keplerian elements: AFSPC